LAZ450 LIRF-LBSF

Flight info

Callsign LAZ450
Flight time 1h 20m
Altitude 34000
Route OKUNO DCT ATRUP DCT ERPOG DCT RIVAM/N0458F350 DCT ORAKA DCT BALHA DCT MOKUN DCT RAMAP DCT NISVA
Aircraft T154/M-SDGRWY/S

Departure

Time 2026-05-04 15:14
Airport Rome–Fiumicino Leonardo da Vinci International Airport (LIRF)

Arrival

Time 2026-05-04 16:35
Airport Sofia Airport (LBSF)
Time Latitude Longitude Altitude Speed Heading
2026-05-04 14:20 41.79556 12.26152 23 ft 0 kts 115°
2026-05-04 14:59 41.79560 12.26141 23 ft 2 kts 115°
2026-05-04 14:59 41.79576 12.26091 23 ft 5 kts 109°
2026-05-04 15:00 41.79585 12.26042 23 ft 5 kts 98°
2026-05-04 15:00 41.79587 12.25991 24 ft 5 kts 87°
2026-05-04 15:00 41.79582 12.25940 24 ft 5 kts 78°
2026-05-04 15:01 41.79581 12.25937 24 ft 0 kts 80°
2026-05-04 15:01 41.79562 12.26007 25 ft 11 kts 111°
2026-05-04 15:01 41.79596 12.26084 23 ft 10 kts 25°
2026-05-04 15:01 41.79608 12.26091 23 ft 0 kts 25°
2026-05-04 15:07 41.79642 12.26113 23 ft 10 kts 25°
2026-05-04 15:07 41.79712 12.26149 22 ft 11 kts 356°
2026-05-04 15:07 41.79785 12.26133 21 ft 11 kts 13°
2026-05-04 15:08 41.79833 12.26084 21 ft 9 kts 293°
2026-05-04 15:08 41.79859 12.26001 22 ft 9 kts 293°
2026-05-04 15:08 41.79888 12.25916 22 ft 10 kts 295°
2026-05-04 15:08 41.79945 12.25868 21 ft 10 kts 17°
2026-05-04 15:09 41.80023 12.25918 20 ft 13 kts 26°
2026-05-04 15:09 41.80109 12.25972 20 ft 14 kts 23°
2026-05-04 15:09 41.80202 12.26026 20 ft 15 kts 23°
2026-05-04 15:10 41.80395 12.26146 20 ft 16 kts 26°
2026-05-04 15:10 41.80502 12.26201 19 ft 16 kts 41°
2026-05-04 15:10 41.80605 12.26527 16 ft 20 kts 70°
2026-05-04 15:11 41.80656 12.26716 13 ft 20 kts 70°
2026-05-04 15:11 41.80699 12.26870 13 ft 14 kts 69°
2026-05-04 15:11 41.80733 12.26988 13 ft 12 kts 69°
2026-05-04 15:11 41.80784 12.27047 13 ft 10 kts 350°
2026-05-04 15:12 41.80842 12.27023 13 ft 0 kts 340°
2026-05-04 15:12 41.80870 12.27010 14 ft 8 kts 340°
2026-05-04 15:12 41.80940 12.26976 15 ft 11 kts 333°
2026-05-04 15:13 41.80949 12.26896 14 ft 0 kts 249°
2026-05-04 15:13 41.80875 12.26633 16 ft 72 kts 249°
2026-05-04 15:13 41.80598 12.25645 19 ft 150 kts 249°
2026-05-04 15:14 41.80200 12.24141 303 ft 186 kts 250°
2026-05-04 15:14 41.79808 12.22475 1075 ft 192 kts 250°
2026-05-04 15:14 41.79405 12.20773 1924 ft 195 kts 243°
2026-05-04 15:14 41.78572 12.19391 2595 ft 194 kts 222°
2026-05-04 15:15 41.77605 12.18117 3047 ft 196 kts 218°
2026-05-04 15:15 41.76582 12.16881 3519 ft 199 kts 220°
2026-05-04 15:15 41.75563 12.15638 3970 ft 202 kts 214°
2026-05-04 15:16 41.72544 12.15131 4638 ft 242 kts 175°
2026-05-04 15:16 41.70925 12.15323 5586 ft 237 kts 175°
2026-05-04 15:16 41.67572 12.15861 7075 ft 245 kts 163°
2026-05-04 15:17 41.66174 12.17109 7737 ft 256 kts 129°
2026-05-04 15:17 41.65902 12.21882 8886 ft 282 kts 69°
2026-05-04 15:17 41.66629 12.24377 9385 ft 294 kts 64°
2026-05-04 15:18 41.67629 12.26821 9838 ft 308 kts 61°
2026-05-04 15:18 41.68663 12.29299 10604 ft 310 kts 60°
2026-05-04 15:18 41.69705 12.31864 11175 ft 320 kts 62°
2026-05-04 15:19 41.71947 12.37143 12472 ft 332 kts 58°
2026-05-04 15:19 41.73110 12.39765 13280 ft 332 kts 59°
2026-05-04 15:19 41.75279 12.45397 14385 ft 347 kts 61°
2026-05-04 15:20 41.76382 12.48280 14913 ft 354 kts 61°
2026-05-04 15:20 41.77481 12.51214 15555 ft 357 kts 62°
2026-05-04 15:20 41.78552 12.54213 16309 ft 356 kts 63°
2026-05-04 15:20 41.79598 12.57193 17048 ft 356 kts 63°
2026-05-04 15:21 41.80616 12.60197 17625 ft 360 kts 63°
2026-05-04 15:21 41.82122 12.62828 18096 ft 358 kts 34°
2026-05-04 15:21 41.86142 12.67026 18979 ft 375 kts 32°
2026-05-04 15:22 41.88324 12.68997 19551 ft 382 kts 31°
2026-05-04 15:22 41.90500 12.70969 20422 ft 381 kts 32°
2026-05-04 15:22 41.94525 12.74851 23287 ft 343 kts 31°
2026-05-04 15:23 41.96535 12.76682 23864 ft 352 kts 32°
2026-05-04 15:23 41.98545 12.78595 24381 ft 362 kts 33°
2026-05-04 15:23 42.00563 12.80651 25192 ft 363 kts 34°
2026-05-04 15:23 42.02385 12.82954 25883 ft 371 kts 47°
2026-05-04 15:24 42.05129 12.89070 26902 ft 400 kts 72°
2026-05-04 15:24 42.06215 12.96437 27991 ft 410 kts 77°
2026-05-04 15:25 42.06711 13.00248 28043 ft 422 kts 77°
2026-05-04 15:25 42.07181 13.04166 28289 ft 429 kts 78°
2026-05-04 15:25 42.07634 13.08176 28699 ft 431 kts 79°
2026-05-04 15:26 42.08367 13.16202 29354 ft 441 kts 81°
2026-05-04 15:26 42.08744 13.20343 29650 ft 444 kts 77°
2026-05-04 15:26 42.09692 13.28645 30218 ft 455 kts 78°
2026-05-04 15:27 42.10258 13.32813 30537 ft 458 kts 75°
2026-05-04 15:27 42.11566 13.41256 31197 ft 465 kts 73°
2026-05-04 15:28 42.12915 13.49879 31923 ft 474 kts 75°
2026-05-04 15:28 42.13542 13.54269 32276 ft 478 kts 75°
2026-05-04 15:28 42.14939 13.63121 32762 ft 489 kts 72°
2026-05-04 15:29 42.15724 13.67578 32879 ft 498 kts 72°
2026-05-04 15:30 42.19421 13.85853 33527 ft 504 kts 69°
2026-05-04 15:30 42.22590 13.99254 34495 ft 493 kts 67°
2026-05-04 15:31 42.24462 14.08113 34922 ft 494 kts 69°
2026-05-04 15:31 42.25443 14.12579 35083 ft 494 kts 68°
2026-05-04 15:32 42.30851 14.34496 35113 ft 491 kts 69°
2026-05-04 15:33 42.32178 14.43541 35083 ft 496 kts 82°
2026-05-04 15:34 42.33098 14.57415 35095 ft 494 kts 81°
2026-05-04 15:34 42.34948 14.71008 35039 ft 488 kts 66°
2026-05-04 15:35 42.37627 14.84273 35079 ft 492 kts 77°
2026-05-04 15:36 42.39596 14.97823 35091 ft 490 kts 76°
2026-05-04 15:36 42.40890 15.06806 35089 ft 487 kts 77°
2026-05-04 15:37 42.42018 15.15807 35093 ft 488 kts 78°
2026-05-04 15:37 42.42979 15.24871 35092 ft 486 kts 79°
2026-05-04 15:38 42.43808 15.34428 35027 ft 484 kts 82°
2026-05-04 15:38 42.44419 15.43517 35032 ft 486 kts 83°
2026-05-04 15:39 42.44863 15.52590 35038 ft 484 kts 84°
2026-05-04 15:40 42.44917 15.66232 35080 ft 486 kts 91°
2026-05-04 15:40 42.44827 15.70797 34875 ft 489 kts 87°
2026-05-04 15:40 42.45000 15.73808 34792 ft 487 kts 77°
2026-05-04 15:40 42.46518 15.79429 34718 ft 477 kts 56°
2026-05-04 15:41 42.48267 15.83240 34767 ft 473 kts 53°
2026-05-04 15:41 42.50036 15.86897 34914 ft 471 kts 59°
2026-05-04 15:41 42.51225 15.91079 34936 ft 476 kts 76°
2026-05-04 15:42 42.51969 15.99936 35197 ft 472 kts 83°
2026-05-04 15:42 42.52445 16.08767 35177 ft 474 kts 89°
2026-05-04 15:43 42.51556 16.17582 35172 ft 474 kts 91°
2026-05-04 15:43 42.51514 16.26503 35183 ft 472 kts 86°
2026-05-04 15:44 42.51670 16.34678 35191 ft 472 kts 85°
2026-05-04 15:44 42.51872 16.42705 35193 ft 473 kts 85°
2026-05-04 15:45 42.52101 16.51546 35196 ft 474 kts 85°
2026-05-04 15:45 42.52331 16.60489 35198 ft 474 kts 84°
2026-05-04 15:46 42.52554 16.69380 35156 ft 476 kts 85°
2026-05-04 15:46 42.52769 16.78359 35177 ft 476 kts 85°
2026-05-04 15:47 42.52978 16.87286 35191 ft 476 kts 85°
2026-05-04 15:47 42.53181 16.96195 35197 ft 476 kts 85°
2026-05-04 15:48 42.53377 17.05102 35200 ft 476 kts 85°
2026-05-04 15:48 42.53659 17.18554 35201 ft 477 kts 85°
2026-05-04 15:49 42.53744 17.22770 35204 ft 477 kts 85°
2026-05-04 15:49 42.53930 17.32127 35205 ft 477 kts 84°
2026-05-04 15:50 42.54100 17.41094 35172 ft 479 kts 84°
2026-05-04 15:50 42.54266 17.50144 35099 ft 481 kts 84°
2026-05-04 15:51 42.54422 17.59150 35125 ft 484 kts 84°
2026-05-04 15:51 42.54576 17.68337 35095 ft 491 kts 85°
2026-05-04 15:52 42.54720 17.77581 35114 ft 495 kts 85°
2026-05-04 15:52 42.54860 17.86953 35137 ft 499 kts 85°
2026-05-04 15:53 42.54993 17.96355 35176 ft 502 kts 85°
2026-05-04 15:53 42.55117 18.05788 35165 ft 505 kts 85°
2026-05-04 15:54 42.55230 18.15378 35138 ft 509 kts 85°
2026-05-04 15:54 42.55343 18.24971 35145 ft 511 kts 85°
2026-05-04 15:55 42.54713 18.34541 35121 ft 521 kts 102°
2026-05-04 15:55 42.52115 18.43754 35323 ft 520 kts 109°
2026-05-04 15:56 42.50732 18.48164 35819 ft 510 kts 110°
2026-05-04 15:56 42.49337 18.52540 36093 ft 505 kts 109°
2026-05-04 15:56 42.46630 18.61399 35871 ft 514 kts 109°
2026-05-04 15:57 42.45239 18.65830 35639 ft 521 kts 110°
2026-05-04 15:57 42.43793 18.70375 35328 ft 529 kts 110°
2026-05-04 15:57 42.42745 18.75141 34989 ft 528 kts 94°
2026-05-04 15:57 42.42710 18.80088 34620 ft 523 kts 77°
2026-05-04 15:58 42.43698 18.84746 34257 ft 513 kts 60°
2026-05-04 15:58 42.45403 18.88915 34059 ft 508 kts 55°
2026-05-04 15:58 42.47202 18.93074 33952 ft 507 kts 55°
2026-05-04 15:58 42.48977 18.97145 34091 ft 501 kts 54°
2026-05-04 15:59 42.50693 19.01134 34678 ft 490 kts 58°
2026-05-04 15:59 42.52241 19.05231 35005 ft 483 kts 57°
2026-05-04 15:59 42.53778 19.09219 35145 ft 481 kts 57°
2026-05-04 15:59 42.55331 19.13259 35179 ft 482 kts 58°
2026-05-04 16:00 42.58413 19.21337 35160 ft 484 kts 58°
2026-05-04 16:00 42.61496 19.29479 35158 ft 486 kts 58°
2026-05-04 16:01 42.64709 19.37460 35162 ft 484 kts 54°
2026-05-04 16:01 42.68208 19.45293 35157 ft 485 kts 54°
2026-05-04 16:02 42.71766 19.53102 35156 ft 485 kts 53°
2026-05-04 16:03 42.77485 19.64225 35123 ft 476 kts 41°
2026-05-04 16:03 42.82152 19.70651 35120 ft 477 kts 41°
2026-05-04 16:04 42.86860 19.76995 35124 ft 477 kts 41°
2026-05-04 16:04 42.91547 19.83199 35295 ft 451 kts 39°
2026-05-04 16:04 42.93856 19.85924 35142 ft 435 kts 34°
2026-05-04 16:05 42.96326 19.88267 34380 ft 436 kts 30°
2026-05-04 16:05 42.98871 19.90664 33365 ft 465 kts 32°
2026-05-04 16:06 43.06829 19.98303 33297 ft 458 kts 31°
2026-05-04 16:07 43.17125 20.08594 33340 ft 469 kts 46°
2026-05-04 16:07 43.22955 20.19393 33576 ft 471 kts 49°
2026-05-04 16:08 43.24937 20.23040 33671 ft 471 kts 49°
2026-05-04 16:08 43.30826 20.33760 34001 ft 471 kts 49°
2026-05-04 16:09 43.34794 20.40947 34249 ft 473 kts 49°
2026-05-04 16:09 43.38768 20.48146 34510 ft 474 kts 49°
2026-05-04 16:10 43.42513 20.55678 34785 ft 481 kts 57°
2026-05-04 16:11 43.45629 20.68799 35104 ft 501 kts 83°
2026-05-04 16:11 43.45777 20.73642 35203 ft 503 kts 84°
2026-05-04 16:12 43.45973 20.87969 35237 ft 486 kts 89°
2026-05-04 16:12 43.43348 21.01512 35601 ft 499 kts 105°
2026-05-04 16:13 43.38410 21.19370 35538 ft 499 kts 107°
2026-05-04 16:14 43.33318 21.37075 35466 ft 499 kts 107°
2026-05-04 16:15 43.29221 21.50125 35106 ft 495 kts 110°
2026-05-04 16:16 43.26355 21.58678 35109 ft 494 kts 110°
2026-05-04 16:17 43.19717 21.80175 34644 ft 476 kts 100°
2026-05-04 16:18 43.16960 21.93044 33707 ft 464 kts 103°
2026-05-04 16:18 43.15999 21.97207 33407 ft 461 kts 107°
2026-05-04 16:19 43.11801 22.08865 32550 ft 451 kts 115°
2026-05-04 16:19 43.08976 22.16472 31650 ft 447 kts 114°
2026-05-04 16:20 43.05245 22.27936 28769 ft 427 kts 112°
2026-05-04 16:20 43.03044 22.35192 27075 ft 403 kts 112°
2026-05-04 16:21 43.00240 22.45524 24347 ft 378 kts 108°
2026-05-04 16:22 42.98488 22.52141 22493 ft 366 kts 109°
2026-05-04 16:22 42.94535 22.60638 19947 ft 349 kts 126°
2026-05-04 16:23 42.90052 22.68098 17253 ft 336 kts 126°
2026-05-04 16:24 42.87582 22.79369 13669 ft 300 kts 95°
2026-05-04 16:25 42.86992 22.84804 12085 ft 284 kts 96°
2026-05-04 16:26 42.84038 22.93858 8687 ft 290 kts 159°
2026-05-04 16:26 42.78518 22.95719 6908 ft 268 kts 166°
2026-05-04 16:27 42.74904 22.96615 6195 ft 259 kts 168°
2026-05-04 16:28 42.71721 23.00624 5877 ft 200 kts 94°
2026-05-04 16:28 42.71420 23.06305 5938 ft 191 kts 87°
2026-05-04 16:29 42.71338 23.13035 5709 ft 177 kts 89°
2026-05-04 16:30 42.71068 23.18090 4926 ft 181 kts 92°
2026-05-04 16:31 42.70812 23.21445 4418 ft 176 kts 91°
2026-05-04 16:31 42.70513 23.26343 3722 ft 172 kts 90°
2026-05-04 16:32 42.70225 23.30982 3009 ft 150 kts 92°
2026-05-04 16:33 42.70085 23.33769 2657 ft 145 kts 89°
2026-05-04 16:33 42.69955 23.36562 2264 ft 149 kts 94°
2026-05-04 16:34 42.69790 23.39306 1892 ft 143 kts 94°
2026-05-04 16:34 42.69714 23.40607 1766 ft 128 kts 94°
2026-05-04 16:35 42.69578 23.42528 1754 ft 27 kts 111°
2026-05-04 16:35 42.69399 23.42703 1755 ft 9 kts 262°
2026-05-04 16:36 42.69402 23.42569 1756 ft 15 kts 274°
2026-05-04 16:36 42.69422 23.42269 1760 ft 16 kts 275°
2026-05-04 16:37 42.69438 23.42026 1759 ft 14 kts 275°
2026-05-04 16:37 42.69449 23.41870 1759 ft 17 kts 275°
2026-05-04 16:37 42.69470 23.41493 1760 ft 21 kts 274°
2026-05-04 16:38 42.69443 23.41209 1763 ft 12 kts 199°
2026-05-04 16:39 42.69220 23.41145 1766 ft 6 kts 191°
2026-05-04 16:39 42.69122 23.41094 1768 ft 8 kts 248°
2026-05-04 16:40 42.69094 23.41025 1771 ft 3 kts 156°
2026-05-04 16:40 42.69027 23.41080 1770 ft 0 kts 163°